This demonstration page uses our WeatherBlox Daily Observations layout. Learn more.

Left ArrowRight Arrow

Hourly Observations for December 7, 2022

Temp ( °F °C ) Dew Point ( °F °C ) Humidity (%) Winds ( mph kmh ) Pressure ( in mb ) Visibility ( mi km ) Precip ( " mm )
12:04 am 00:04 Cloudy -5 -20.6 -10 -23.3 79 79 E 8 13 30.36 1028 10 16 0.00 0.00
12:41 am 00:41 Partly Cloudy -6 -21.1 -12 -24.4 75 75 E 7 11 30.37 1028 10 16 0.00 0.00
12:53 am 00:53 Clear -5 -20.6 -11 -23.9 75 75 E 5 7 30.22 1023 10 16 0.00 0.00
1:53 am 01:53 Clear -7 -21.7 -12 -24.4 79 79 ENE 6 9 30.22 1023 10 16 0.00 0.00
2:53 am 02:53 Clear -9 -22.8 -12 -24.4 87 87 Calm 30.21 1023 10 16 0.00 0.00
3:53 am 03:53 Clear -11 -23.9 -15 -26.1 82 82 E 3 6 30.19 1023 10 16 0.00 0.00
4:53 am 04:53 Mostly Clear -11 -23.9 -16 -26.7 77 77 E 5 7 30.18 1022 10 16 0.00 0.00
5:53 am 05:53 Mostly Clear -10 -23.3 -15 -26.1 78 78 ENE 3 6 30.16 1022 10 16 0.00 0.00
6:53 am 06:53 Clear -11 -23.9 -16 -26.7 77 77 ESE 3 6 30.16 1021 10 16 0.00 0.00
7:53 am 07:53 Clear -13 -25 -18 -27.8 77 77 Calm 30.18 1022 10 16 0.00 0.00
8:53 am 08:53 Sunny -15 -26.1 -19 -28.3 82 82 Calm 30.19 1023 9 14 0.00 0.00
9:53 am 09:53 Sunny -12 -24.4 -17 -27.2 77 77 WSW 5 7 30.21 1023 10 16 0.00 0.00
10:53 am 10:53 Sunny -7 -21.7 -13 -25 74 74 W 6 9 30.19 1022 10 16 0.00 0.00
11:53 am 11:53 Sunny -3 -19.4 -9 -22.8 74 74 SW 14 22 30.17 1022 10 16 0.00 0.00
12:53 pm 12:53 Sunny 3 -16.1 -3 -19.4 76 76 SW 14 22 30.16 1021 10 16 0.00 0.00
1:53 pm 13:53 Sunny 3 -16.1 -4 -20 72 72 E 3 6 30.17 1022 10 16 0.00 0.00
2:53 pm 14:53 Sunny 5 -15 -1 -18.3 76 76 SW 9 15 30.16 1021 10 16 0.00 0.00
3:53 pm 15:53 Sunny 5 -15 -1 -18.3 76 76 WSW 10 17 30.16 1022 10 16 0.00 0.00
4:53 pm 16:53 Clear 7 -13.9 1 -17.2 76 76 WSW 16 26 30.18 1022 10 16 0.00 0.00
5:53 pm 17:53 Clear 4 -15.6 -1 -18.3 80 80 W 9 15 30.19 1022 10 16 0.00 0.00
6:53 pm 18:53 Clear -5 -20.6 -9 -22.8 82 82 SSW 3 6 30.21 1023 10 16 0.00 0.00
7:53 pm 19:53 Clear -6 -21.1 -11 -23.9 78 78 E 6 9 30.22 1024 10 16 0.00 0.00
8:53 pm 20:53 Clear -6 -21.1 -11 -23.9 78 78 ENE 5 7 30.23 1024 10 16 0.00 0.00
9:53 pm 21:53 Clear -6 -21.1 -11 -23.9 78 78 Calm 30.22 1023 10 16 0.00 0.00
10:53 pm 22:53 Clear -6 -21.1 -11 -23.9 78 78 E 5 7 30.21 1023 10 16 0.00 0.00
11:53 pm 23:53 Clear -7 -21.7 -12 -24.4 79 79 E 3 6 30.20 1023 10 16 0.00 0.00

Powered by AerisWeather